Weather History for Selawik, AK

Change the Weather History Date:

Friday, February 21, 2014

  Actual Average Record
Temperature  
Mean Temperature -22 °F -  
Max Temperature -11 °F 6 °F 23 °F (2001)
Min Temperature -34 °F -2 °F -34 °F (2014)
Degree Days  
Heating Degree Days 88    
Moisture  
Dew Point -23 °F    
Average Humidity 65    
Maximum Humidity 92    
Minimum Humidity 48    
Precipitation  
Precipitation 0.00 in - - ()
Sea Level Pressure  
Sea Level Pressure 30.39 in    
Wind  
Wind Speed 6 mph (ENE)    
Max Wind Speed 20 mph    
Max Gust Speed -    
Visibility 10 miles    
Events      
Averages and records for this station are not official NWS values.
T = Trace of Precipitation, MM = Missing Value Source: NWS Daily Summary

Daily Weather History Graph

Daily Weather History Graph

Search for Another Location

Airport:

Trip Planner

Search our weather history database for the weather conditions in past years. The results will help you decide how hot, cold, wet, or windy it might be!

Date:

Astronomy

Feb. 21, 2014 Rise Set
Actual Time 9:24 AM AKST 6:23 PM AKST
Civil Twilight 8:29 AM AKST 7:19 PM AKST
Nautical Twilight 7:28 AM AKST 8:19 PM AKST
Astronomical Twilight 6:27 AM AKST 9:21 PM AKST
Moon 3:21 AM AKST (2/21) 9:59 AM AKST (2/21)
Length of Visible Light 10h 49m
Length of Day
8h 59m
Waning Gibbous, 59% of the Moon is Illuminated
Feb 21
Waning Gibbous
Feb 22
Last Quarter
Feb 28
New
Mar 8
First Quarter
Mar 16
Full

Hourly Weather History & Observations

Time (AKST) Temp. Windchill Dew Point Humidity Pressure Visibility Wind Dir Wind Speed Gust Speed Precip Events Conditions
12:16 AM -34.6 °F - - N/A% 30.34 in 10.0 mi Calm Calm - N/A   Clear
12:36 AM -32.8 °F - - N/A% 30.34 in 10.0 mi Calm Calm - N/A   Clear
12:56 AM -32.8 °F -45.3 °F - N/A% 30.34 in 10.0 mi ENE 3.5 mph - N/A   Clear
1:16 AM -32.8 °F - - N/A% 30.35 in 10.0 mi Calm Calm - N/A   Clear
1:36 AM -31.0 °F - - N/A% 30.35 in 10.0 mi Calm Calm - N/A   Clear
1:56 AM -32.8 °F - - N/A% 30.35 in 10.0 mi Calm Calm - N/A   Clear
2:16 AM -34.6 °F - - N/A% 30.36 in 10.0 mi Calm Calm - N/A   Clear
2:36 AM -34.6 °F - - N/A% 30.36 in 10.0 mi Calm Calm - N/A   Clear
2:56 AM -34.6 °F - - N/A% 30.36 in 10.0 mi Calm Calm - N/A   Clear
3:16 AM - - - N/A% 30.36 in 9.0 mi NE 3.5 mph - N/A   Clear
3:36 AM -34.6 °F - - N/A% 30.37 in 10.0 mi Calm Calm - N/A   Clear
3:56 AM - - - N/A% 30.37 in 10.0 mi NNE 5.8 mph - N/A   Clear
4:16 AM - - - N/A% 30.36 in 10.0 mi ENE 3.5 mph - N/A   Clear
4:36 AM - - - N/A% 30.37 in 10.0 mi NE 3.5 mph - N/A   Clear
4:56 AM - - - N/A% 30.37 in 10.0 mi Calm Calm - N/A   Clear
5:16 AM - - - N/A% 30.37 in 10.0 mi Calm Calm - N/A   Clear
5:36 AM -34.6 °F -47.4 °F - N/A% 30.37 in 10.0 mi ENE 3.5 mph - N/A   Clear
5:56 AM - - - N/A% 30.37 in 10.0 mi ENE 5.8 mph - N/A   Clear
6:16 AM -32.8 °F -52.4 °F - N/A% 30.38 in 10.0 mi East 6.9 mph - N/A   Clear
6:36 AM -31.0 °F - - N/A% 30.38 in 10.0 mi Calm Calm - N/A   Clear
6:56 AM -32.8 °F -45.3 °F - N/A% 30.39 in 10.0 mi East 3.5 mph - N/A   Clear
7:16 AM -31.0 °F -48.4 °F - N/A% 30.39 in 10.0 mi East 5.8 mph - N/A   Clear
7:36 AM -31.0 °F -43.3 °F - N/A% 30.39 in 10.0 mi East 3.5 mph - N/A   Clear
7:56 AM -31.0 °F -43.3 °F - N/A% 30.40 in 10.0 mi ENE 3.5 mph - N/A   Clear
8:16 AM -31.0 °F -46.1 °F - N/A% 30.40 in 10.0 mi ENE 4.6 mph - N/A   Clear
8:36 AM -31.0 °F -48.4 °F - N/A% 30.40 in 10.0 mi NE 5.8 mph - N/A   Clear
8:56 AM -29.2 °F -48.1 °F - N/A% 30.40 in 10.0 mi East 6.9 mph - N/A   Clear
9:16 AM -29.2 °F -44.0 °F - N/A% 30.40 in 10.0 mi ENE 4.6 mph - N/A   Clear
9:36 AM -29.2 °F -48.1 °F - N/A% 30.40 in 10.0 mi ENE 6.9 mph - N/A   Clear
9:56 AM -29.2 °F -48.1 °F - N/A% 30.40 in 10.0 mi ENE 6.9 mph - N/A   Clear
10:16 AM -29.2 °F -46.2 °F - N/A% 30.41 in 10.0 mi ENE 5.8 mph - N/A   Clear
10:36 AM -29.2 °F -41.2 °F - N/A% 30.42 in 10.0 mi East 3.5 mph - N/A   Clear
10:56 AM -27.4 °F - -29.2 °F 91% 30.42 in 10.0 mi Calm Calm - N/A   Clear
11:16 AM -27.4 °F -44.1 °F - N/A% 30.42 in 10.0 mi ENE 5.8 mph - N/A   Clear
11:36 AM -27.4 °F -44.1 °F - N/A% 30.42 in 10.0 mi ENE 5.8 mph - N/A   Clear
11:56 AM -25.6 °F -43.8 °F -27.4 °F 91% 30.42 in 10.0 mi ENE 6.9 mph - N/A   Clear
12:16 PM -23.8 °F -39.8 °F - N/A% 30.42 in 10.0 mi East 5.8 mph - N/A   Clear
12:36 PM -23.8 °F -39.8 °F - N/A% 30.43 in 10.0 mi East 5.8 mph - N/A   Clear
12:56 PM -20.2 °F -40.1 °F - N/A% 30.42 in 10.0 mi ENE 9.2 mph - N/A   Clear
1:16 PM -18.4 °F -40.2 °F - N/A% 30.43 in 10.0 mi ENE 11.5 mph - N/A   Clear
1:36 PM -16.6 °F -36.8 °F - N/A% 30.43 in 10.0 mi East 10.4 mph - N/A   Clear
1:56 PM - - - N/A% 30.42 in 10.0 mi ENE 12.7 mph - N/A   Clear
2:16 PM -14.8 °F -36.6 °F - N/A% 30.43 in 10.0 mi ENE 12.7 mph - N/A   Clear
2:36 PM -14.8 °F -38.3 °F -29.2 °F 48% 30.42 in 10.0 mi ENE 15.0 mph - N/A   Clear
2:56 PM -13.0 °F -36.0 °F -27.4 °F 49% 30.42 in 10.0 mi East 15.0 mph - N/A   Clear
3:16 PM -13.0 °F -36.8 °F -27.4 °F 49% 30.42 in 10.0 mi ENE 16.1 mph - N/A   Clear
3:36 PM -11.2 °F -35.8 °F -23.8 °F 54% 30.42 in 10.0 mi ENE 18.4 mph - N/A   Clear
3:56 PM -11.2 °F -35.8 °F -23.8 °F 54% 30.41 in 10.0 mi ENE 18.4 mph - N/A   Clear
4:16 PM -11.2 °F -34.4 °F -23.8 °F 54% 30.41 in 10.0 mi ENE 16.1 mph - N/A   Clear
4:36 PM -11.2 °F -35.2 °F -22.0 °F 59% 30.41 in 10.0 mi ENE 17.3 mph - N/A   Clear
4:56 PM -11.2 °F -34.4 °F -20.2 °F 64% 30.41 in 10.0 mi East 16.1 mph - N/A   Clear
5:16 PM -11.2 °F -35.8 °F -22.0 °F 59% 30.41 in 10.0 mi ENE 18.4 mph - N/A   Clear
5:36 PM -11.2 °F -34.4 °F -20.2 °F 64% 30.40 in 10.0 mi ENE 16.1 mph - N/A   Clear
5:56 PM -11.2 °F -34.4 °F -20.2 °F 64% 30.40 in 10.0 mi ENE 16.1 mph - N/A   Clear
6:16 PM - - - N/A% 30.39 in 10.0 mi ENE 18.4 mph - N/A   Clear
6:36 PM -11.2 °F -33.7 °F -20.2 °F 64% 30.39 in 10.0 mi ENE 15.0 mph - N/A   Clear
6:56 PM -13.0 °F -35.2 °F -23.8 °F 59% 30.39 in 10.0 mi ENE 13.8 mph - N/A   Clear
7:16 PM - - - N/A% 30.38 in 10.0 mi ENE 17.3 mph - N/A   Clear
7:36 PM - - - N/A% 30.38 in 10.0 mi ENE 15.0 mph - N/A   Clear
7:56 PM - - - N/A% 30.38 in 10.0 mi East 13.8 mph - N/A   Clear
8:16 PM - - - N/A% 30.38 in 10.0 mi ENE 12.7 mph - N/A   Clear
8:36 PM - - - N/A% 30.38 in 10.0 mi ENE 13.8 mph - N/A   Clear
8:56 PM - - - N/A% 30.38 in 10.0 mi ENE 16.1 mph - N/A   Clear
9:16 PM - - - N/A% 30.37 in 10.0 mi ENE 17.3 mph - N/A   Clear
9:36 PM -14.8 °F -38.3 °F -22.0 °F 70% 30.39 in 10.0 mi ENE 15.0 mph - N/A   Clear
9:56 PM -14.8 °F -39.8 °F -20.2 °F 77% 30.38 in 10.0 mi ENE 17.3 mph - N/A   Clear
10:16 PM - - - N/A% 30.37 in 10.0 mi ENE 19.6 mph - N/A   Clear
10:36 PM -13.0 °F -38.2 °F -22.0 °F 64% 30.37 in 10.0 mi ENE 18.4 mph - N/A   Clear
10:56 PM -14.8 °F -39.1 °F -16.6 °F 92% 30.38 in 10.0 mi ENE 16.1 mph - N/A   Clear
11:16 PM - - - N/A% 30.37 in 10.0 mi ENE 18.4 mph - N/A   Clear
11:36 PM - - - N/A% 30.36 in 10.0 mi ENE 19.6 mph - N/A   Clear
11:56 PM -11.2 °F -36.4 °F -20.2 °F 64% 30.37 in 10.0 mi ENE 19.6 mph - N/A   Clear